Home   Weather   Owensboro   Past weeks

Flag for USA Past Weather in Owensboro, Kentucky, USA — Yesterday and Last 2 Weeks

Now
73 °F

Broken clouds.


Feels Like: 70 °F
Forecast: 78 / 91 °F
Wind: 6 mph from Southeast

Location: Owensboro / Daviess

Current Time: Jul 23, 2017 at 10:11:43 am

Latest Report: Jul 23, 2017 at 8:56 am


Visibility: 7 mi

Pressure: 29.93 "Hg

Humidity: 94%

Dew Point: 71 °F

Location of OwensboroLocation

Past Weather in Owensboro — Graph

°F

Owensboro Temperature Yesterday

Maximum temperature yesterday: 96 °F (at 3:56 pm)
Minimum temperature yesterday: 76 °F (at 5:56 am)
Average temperature yesterday: 86 °F

High & Low Weather Summary for the Past Weeks

 TemperatureHumidityPressure
High96 °F (Jul 21, 2:56 pm)100% (Jul 19, 3:33 am)30.17 "Hg (Jul 19, 3:33 am)
Low64 °F (Jul 16, 4:56 am)40% (Jul 8, 3:56 pm)29.81 "Hg (Jul 22, 4:56 pm)
Average80 °F75%30.04 "Hg
* Reported Jul 8 8:56 am — Jul 23 8:32 am, Owensboro. Weather by CustomWeather, © 2017

Note: Actual official high and low records may vary slightly from our data, if they occured in-between our weather recording intervals... More about our weather records

Advertising

Owensboro Weather History for the Previous 24 Hours

Scroll right to see more
 ConditionsComfort  
Time TempWeatherWind HumidityBarometerVisibility
8:32 am
Sun, Jul 23
72 °FCloudy.7 mph100%29.91 "Hg7 mi
7:56 am72 °FStrong thunderstorms. Fog.5 mph93%29.96 "Hg5 mi
7:24 am72 °FStrong thunderstorms. Fog.5 mph100%29.97 "Hg1 mi
7:00 am73 °FStrong thunderstorms. Fog.6 mph89%29.92 "Hg1 mi
5:56 am73 °FOvercast.6 mph90%29.87 "Hg7 mi
4:56 am73 °FLight rain. Overcast.15 mph90%29.85 "Hg10 mi
4:43 am73 °FLight rain. Mostly cloudy.18 mph94%29.85 "Hg10 mi
4:06 am79 °FMostly cloudy.14 mph79%29.86 "Hg10 mi
2:56 am81 °FLight rain. Passing clouds.12 mph82%29.81 "Hg10 mi
1:56 am82 °FPassing clouds.9 mph79%29.81 "Hg10 mi
12:56 am82 °FPassing clouds.8 mph82%29.83 "Hg10 mi
11:56 pm
Sat, Jul 22
81 °FClear.6 mph85%29.86 "Hg10 mi
10:56 pm82 °FClear.9 mph79%29.85 "Hg10 mi
9:56 pm82 °FClear.7 mph79%29.86 "Hg10 mi
8:56 pm84 °FClear.5 mph77%29.86 "Hg10 mi
7:56 pm87 °FClear.6 mph69%29.84 "Hg10 mi
6:56 pm91 °FSunny.10 mph61%29.83 "Hg10 mi
5:56 pm94 °FSunny.10 mph56%29.83 "Hg10 mi
4:56 pm95 °FSunny.16 mph51%29.81 "Hg10 mi
3:56 pm96 °FPassing clouds.14 mph56%29.83 "Hg10 mi
2:56 pm95 °FPassing clouds.14 mph52%29.84 "Hg10 mi
1:56 pm95 °FScattered clouds.9 mph54%29.86 "Hg7 mi
12:56 pm94 °FScattered clouds.9 mph56%29.92 "Hg7 mi
11:56 am93 °FScattered clouds.16 mph60%29.96 "Hg7 mi
10:56 am92 °FPassing clouds.12 mph64%29.97 "Hg7 mi
Weather by CustomWeather, © 2017

See weather overviewHow to use our weather pages